IPSTAR 1

导读 | 星芒AI

IPSTAR 1 是一颗由波音公司制造的通信卫星,于2004年发射,旨在为亚太地区提供宽带和电视广播服务。该卫星由印度尼西亚的Indosat公司运营,搭载C波段和Ku波段转发器,支持多种通信应用。IPSTAR 1 在轨运行期间为多个国家和地区提供了重要的通信基础设施,提升了区域内的信息连接能力。

基本信息
目录编号:
28786
目录名称:
IPSTAR 1
国际标识:
2005-028A
轨道中心:
EARTH
卫星名称:
IPSTAR 1
卫星全名:
--
卫星状态:
在轨 (已飞行7390 天)
发射日期:
2005-08-11 UTC
国别 :
(TH)
星等 :
--
轨道信息
数据来源 国际轨道数据 AOE轨道数据
星历时间 2025-11-04T14:34:44+0800
7小时前
查看轨道信息
2025-11-04T03:00:00+0800
19小时前
查看轨道信息
半长轴 42164.672km 42164.7km
偏心率 0.0002611 0.0002769
轨道倾角 0.087° 0.085°
近地点辐角 137.851° 145.198°
升交点赤经 85.596° 85.783°
平近点角 38.521° 216.827°
近地点 35775.527km 35774.889km
远地点 35797.547km 35798.241km
周期 1436.094分钟 1436.095分钟
每日圈数 1.00272 1.002719
详细信息
使用方式:
暂无
2D轨道图
3D轨道图
轨道高度分析图
轨道倾角分析图
轨道综合分析图
查看轨道综合分析图